TimeCDT,TemperatureF,Dew PointF,Humidity,Sea Level PressureIn,VisibilityMPH,Wind Direction,Wind SpeedMPH,Gust SpeedMPH,PrecipitationIn,Events,Conditions,WindDirDegrees,DateUTC
12:53 AM,52.0,23.0,32,30.06,10.0,SSE,3.5,-,N/A,,Clear,150,2013-03-12 05:53:00
1:53 AM,50.0,23.0,35,30.06,10.0,SE,5.8,-,N/A,,Clear,140,2013-03-12 06:53:00
2:53 AM,46.9,23.0,39,30.06,10.0,ESE,4.6,-,N/A,,Clear,120,2013-03-12 07:53:00
3:53 AM,48.0,24.1,39,30.05,10.0,SE,4.6,-,N/A,,Clear,130,2013-03-12 08:53:00
4:53 AM,45.0,23.0,42,30.06,10.0,ESE,5.8,-,N/A,,Clear,110,2013-03-12 09:53:00
5:53 AM,45.0,23.0,42,30.07,10.0,ESE,4.6,-,N/A,,Clear,120,2013-03-12 10:53:00
6:53 AM,44.1,25.0,47,30.08,10.0,ESE,4.6,-,N/A,,Clear,120,2013-03-12 11:53:00
7:53 AM,44.1,28.0,53,30.10,10.0,ESE,4.6,-,N/A,,Clear,120,2013-03-12 12:53:00
8:53 AM,48.9,30.9,50,30.12,10.0,ESE,3.5,-,N/A,,Clear,120,2013-03-12 13:53:00
9:53 AM,57.9,37.9,47,30.14,10.0,South,8.1,-,N/A,,Clear,170,2013-03-12 14:53:00
10:53 AM,68.0,37.0,32,30.15,10.0,South,6.9,-,N/A,,Clear,180,2013-03-12 15:53:00
11:53 AM,75.0,32.0,21,30.14,10.0,SSW,10.4,-,N/A,,Clear,210,2013-03-12 16:53:00
12:53 PM,78.1,25.0,14,30.13,10.0,Variable,5.8,-,N/A,,Clear,0,2013-03-12 17:53:00
1:53 PM,81.0,24.1,12,30.10,10.0,Variable,4.6,-,N/A,,Clear,0,2013-03-12 18:53:00
2:53 PM,81.0,21.9,11,30.08,10.0,Variable,3.5,-,N/A,,Clear,0,2013-03-12 19:53:00
3:53 PM,82.9,21.9,11,30.05,10.0,SSW,9.2,-,N/A,,Clear,200,2013-03-12 20:53:00
4:53 PM,82.9,19.9,10,30.03,10.0,Calm,Calm,-,N/A,,Clear,0,2013-03-12 21:53:00
5:53 PM,82.0,19.9,10,30.03,10.0,South,4.6,-,N/A,,Clear,180,2013-03-12 22:53:00
6:53 PM,82.0,19.9,10,30.05,10.0,Calm,Calm,-,N/A,,Clear,0,2013-03-12 23:53:00
7:53 PM,75.9,19.9,12,30.08,10.0,NE,4.6,-,N/A,,Clear,50,2013-03-13 00:53:00
8:53 PM,69.1,21.9,17,30.11,10.0,ENE,6.9,-,N/A,,Clear,60,2013-03-13 01:53:00
9:53 PM,68.0,34.0,28,30.15,10.0,SE,13.8,20.7,N/A,,Clear,130,2013-03-13 02:53:00
10:53 PM,64.9,39.9,40,30.18,10.0,SE,10.4,-,N/A,,Clear,130,2013-03-13 03:53:00
11:53 PM,62.1,42.1,48,30.19,10.0,SE,9.2,-,N/A,,Clear,130,2013-03-13 04:53:00